timestamp,surface_pressure_avg,surface_temp_avg,battery_voltage,lat,long
2022-05-17 00:09:01+00:00,386.5877,6.6,11.86,47.84626,-54.09684
2022-05-17 00:19:01+00:00,382.2963,6.6,11.86,47.84626,-54.09684
2022-05-17 00:29:01+00:00,382.0613,6.6,11.86,47.84626,-54.09684
2022-05-17 00:39:01+00:00,381.3328,6.6,11.86,47.84626,-54.09684
2022-05-17 00:49:01+00:00,377.6078,6.6,11.86,47.84626,-54.09684
2022-05-17 00:59:01+00:00,375.1646,6.6,11.86,47.84626,-54.09684
2022-05-17 01:09:01+00:00,375.11800000000005,6.6,11.86,47.84626,-54.09684
2022-05-17 01:19:01+00:00,370.9462,6.6,11.86,47.84626,-54.09684
2022-05-17 01:29:01+00:00,362.5129,6.6,11.86,47.84626,-54.09684
2022-05-17 01:39:01+00:00,359.0098,6.6,11.86,47.84626,-54.09684
2022-05-17 01:49:01+00:00,357.63300000000015,6.6,11.86,47.84626,-54.09684
2022-05-17 01:59:01+00:00,348.588,6.6,11.86,47.84626,-54.09684
2022-05-17 02:09:01+00:00,340.528,6.6,11.86,47.84626,-54.09684
2022-05-17 02:19:01+00:00,336.2463,6.6,11.86,47.84626,-54.09684
2022-05-17 02:29:01+00:00,328.5813,6.6,11.86,47.84626,-54.09684
2022-05-17 02:39:01+00:00,316.0363,6.65,11.86,47.84626,-54.09684
2022-05-17 02:49:01+00:00,306.728,6.69,11.86,47.84626,-54.09684
2022-05-17 02:59:01+00:00,299.5047,6.7,11.86,47.84626,-54.09684
2022-05-17 03:09:01+00:00,287.8363,6.7,11.86,47.84626,-54.09684
2022-05-17 03:19:01+00:00,276.2564,6.7,11.86,47.84626,-54.09684
2022-05-17 03:29:01+00:00,267.2597,6.7,11.86,47.84626,-54.09684
2022-05-17 03:39:01+00:00,257.8847,6.7,11.86,47.84626,-54.09684
2022-05-17 03:49:01+00:00,245.4514,6.7,11.86,47.84626,-54.09684
2022-05-17 03:59:01+00:00,232.4547,6.75,11.86,47.84626,-54.09684
2022-05-17 04:09:01+00:00,222.4798,6.78,11.86,47.84626,-54.09684
2022-05-17 04:19:00+00:00,213.9331,6.8,11.86,47.84626,-54.09684
2022-05-17 04:29:00+00:00,206.1298,6.8,11.86,47.84626,-54.09684
2022-05-17 04:39:00+00:00,197.7081,6.8,11.86,47.84626,-54.09684
2022-05-17 04:49:00+00:00,190.6664,6.8,11.86,47.84626,-54.09684
2022-05-17 04:59:00+00:00,186.5131,6.8,11.86,47.84626,-54.09684
2022-05-17 05:09:00+00:00,181.8065,6.8,11.86,47.84626,-54.09684
2022-05-17 05:19:01+00:00,176.0132,6.8,11.86,47.84626,-54.09684
2022-05-17 05:29:01+00:00,172.0615,6.8,11.86,47.84626,-54.09684
2022-05-17 05:39:01+00:00,170.3732,6.8,11.86,47.84626,-54.09684
2022-05-17 05:49:01+00:00,170.8032,6.8,11.86,47.84626,-54.09684
2022-05-17 05:59:01+00:00,167.0732,6.76,11.86,47.84626,-54.09684
2022-05-17 06:09:01+00:00,162.0648,6.7,11.86,47.84626,-54.09684
2022-05-17 06:19:00+00:00,165.1365,6.7,11.86,47.84626,-54.09684
2022-05-17 06:29:00+00:00,167.5964,6.7,11.86,47.84626,-54.09684
2022-05-17 06:39:00+00:00,165.3282,6.7,11.86,47.84626,-54.09684
2022-05-17 06:49:00+00:00,166.7799,6.73,11.86,47.84626,-54.09684
2022-05-17 06:59:00+00:00,171.1481,6.74,11.86,47.84626,-54.09684
2022-05-17 07:09:00+00:00,174.4116,6.76,11.86,47.84626,-54.09684
2022-05-17 07:19:00+00:00,174.3097,6.78,11.86,47.84626,-54.09684
2022-05-17 07:29:00+00:00,176.0314,6.8,11.86,47.84626,-54.09684
2022-05-17 07:39:00+00:00,181.5498,6.8,11.86,47.84626,-54.09684
2022-05-17 07:49:00+00:00,184.4514,6.8,11.86,47.84626,-54.09684
2022-05-17 07:59:00+00:00,187.2131,6.8,11.86,47.84626,-54.09684
2022-05-17 08:09:00+00:00,192.8382,6.8,11.86,47.84626,-54.09684
2022-05-17 08:19:01+00:00,199.2498,6.8,11.86,47.84626,-54.09684
2022-05-17 08:29:01+00:00,201.9315,6.8,11.86,47.84626,-54.09684
2022-05-17 08:39:01+00:00,204.5948,6.8,11.86,47.84626,-54.09684
2022-05-17 08:49:01+00:00,211.4481,6.8,11.86,47.84626,-54.09684
2022-05-17 08:59:01+00:00,221.8514,6.8,11.86,47.84626,-54.09684
2022-05-17 09:09:01+00:00,228.9664,6.8,11.86,47.84626,-54.09684
2022-05-17 09:19:01+00:00,235.1548,6.8,11.86,47.84626,-54.09684
2022-05-17 09:29:01+00:00,241.2131,6.8,11.86,47.84626,-54.09684
2022-05-17 09:39:01+00:00,246.8948,6.8,11.86,47.84626,-54.09684
2022-05-17 09:49:01+00:00,250.3397,6.8,11.86,47.84626,-54.09684
2022-05-17 09:59:01+00:00,256.8348,6.8,11.86,47.84626,-54.09684
2022-05-17 10:09:01+00:00,264.9531,6.8,11.86,47.84626,-54.09684
2022-05-17 10:19:01+00:00,273.4797,6.8,11.86,47.84626,-54.09684
2022-05-17 10:29:01+00:00,280.4797,6.7,11.86,47.84626,-54.09684
2022-05-17 10:39:01+00:00,292.9713,6.66,11.86,47.84626,-54.09684
2022-05-17 10:49:01+00:00,301.108,6.67,11.86,47.84626,-54.09684
2022-05-17 10:59:01+00:00,308.7164,6.69,11.86,47.84626,-54.09684
2022-05-17 11:09:01+00:00,315.9247,6.67,11.86,47.84626,-54.09684
2022-05-17 11:19:00+00:00,324.1463,6.69,11.86,47.84626,-54.09684
2022-05-17 11:29:00+00:00,329.2812,6.7,11.86,47.84626,-54.09684
2022-05-17 11:39:00+00:00,333.7396,6.7,11.86,47.84626,-54.09684
2022-05-17 11:49:00+00:00,338.0429,6.7,11.86,47.84626,-54.09684
2022-05-17 11:59:00+00:00,339.6313,6.8,11.86,47.84626,-54.09684
2022-05-17 12:09:00+00:00,343.3995,6.8,11.86,47.84626,-54.09684
2022-05-17 12:19:01+00:00,345.8246,6.8,11.86,47.84626,-54.09684
2022-05-17 12:29:01+00:00,346.3296,6.8,11.86,47.84626,-54.09684
2022-05-17 12:39:01+00:00,346.8596,6.78,11.86,47.84626,-54.09684
2022-05-17 12:49:01+00:00,348.7896,6.8,11.86,47.84626,-54.09684
2022-05-17 12:59:01+00:00,347.6147,6.8,11.86,47.84626,-54.09684
2022-05-17 13:09:01+00:00,344.5248,6.8,11.86,47.84626,-54.09684
2022-05-17 13:19:00+00:00,344.5996,6.8,11.86,47.84626,-54.09684
2022-05-17 13:29:00+00:00,342.8796,6.79,11.86,47.84626,-54.09684
2022-05-17 13:39:00+00:00,338.4746,6.79,11.86,47.84626,-54.09684
2022-05-17 13:49:00+00:00,337.5065,6.73,11.86,47.84626,-54.09684
2022-05-17 13:59:00+00:00,336.7580000000001,6.74,11.86,47.84626,-54.09684
2022-05-17 14:09:00+00:00,328.6930000000001,6.78,11.86,47.84626,-54.09684
2022-05-17 14:19:00+00:00,321.8746,6.8,11.86,47.84626,-54.09684
2022-05-17 14:29:00+00:00,319.1629,6.79,11.86,47.84626,-54.09684
2022-05-17 14:39:00+00:00,311.0213,6.8,11.86,47.84626,-54.09684
2022-05-17 14:49:00+00:00,298.5314,6.83,11.86,47.84626,-54.09684
2022-05-17 14:59:00+00:00,292.9897,6.88,11.86,47.84626,-54.09684
2022-05-17 15:09:00+00:00,285.4464,6.89,11.86,47.84626,-54.09684
2022-05-17 15:19:00+00:00,271.1764,6.94,11.86,47.84626,-54.09684
2022-05-17 15:29:00+00:00,260.8181,7.0,11.86,47.84626,-54.09684
2022-05-17 15:39:00+00:00,255.0147,7.0,11.86,47.84626,-54.09684
2022-05-17 15:49:00+00:00,245.8431,7.0,11.86,47.84626,-54.09684
2022-05-17 15:59:00+00:00,236.1698,7.0,11.86,47.84626,-54.09684
2022-05-17 16:09:00+00:00,226.6698,7.0,11.86,47.84626,-54.09684
2022-05-17 16:19:00+00:00,216.3731,7.0,11.86,47.84626,-54.09684
2022-05-17 16:29:00+00:00,204.6697,7.0,11.86,47.84626,-54.09684
2022-05-17 16:39:00+00:00,195.7231,7.0,11.86,47.84626,-54.09684
2022-05-17 16:49:00+00:00,190.6965,7.05,11.86,47.84626,-54.09684
2022-05-17 16:59:00+00:00,185.4781,7.07,11.86,47.84626,-54.09684
2022-05-17 17:09:00+00:00,180.8965,7.08,11.86,47.84626,-54.09684
2022-05-17 17:19:00+00:00,174.1848,7.1,11.86,47.84626,-54.09684
2022-05-17 17:29:00+00:00,168.3131,7.1,11.86,47.84626,-54.09684
2022-05-17 17:39:00+00:00,165.4631,7.13,11.86,47.84626,-54.09684
2022-05-17 17:49:00+00:00,163.8365,7.19,11.86,47.84626,-54.09684
2022-05-17 17:59:00+00:00,164.2881,7.2,11.86,47.84626,-54.09684
2022-05-17 18:09:00+00:00,162.7865,7.2,11.86,47.84626,-54.09684
2022-05-17 18:19:00+00:00,161.7948,7.2,11.86,47.84626,-54.09684
2022-05-17 18:29:00+00:00,166.4131,7.19,11.86,47.84626,-54.09684
2022-05-17 18:39:00+00:00,166.3932,7.2,11.86,47.84626,-54.09684
2022-05-17 18:49:00+00:00,166.0415,7.2,11.86,47.84626,-54.09684
2022-05-17 18:59:00+00:00,172.6565,7.2,11.86,47.84626,-54.09684
2022-05-17 19:09:00+00:00,176.6698,7.2,11.86,47.84626,-54.09684
2022-05-17 19:19:00+00:00,178.3882,7.2,11.86,47.84626,-54.09684
2022-05-17 19:29:00+00:00,183.1148,7.19,11.86,47.84626,-54.09684
2022-05-17 19:39:00+00:00,191.8897,7.1,11.86,47.84626,-54.09684
2022-05-17 19:49:00+00:00,196.4798,7.1,11.86,47.84626,-54.09684
2022-05-17 19:59:00+00:00,200.2198,7.1,11.86,47.84626,-54.09684
2022-05-17 20:09:00+00:00,212.7931,7.09,11.86,47.84626,-54.09684
2022-05-17 20:19:00+00:00,221.4348,7.0,11.86,47.84626,-54.09684
2022-05-17 20:29:00+00:00,222.1181,7.0,11.86,47.84626,-54.09684
2022-05-17 20:39:00+00:00,223.8398,6.96,11.86,47.84626,-54.09684
2022-05-17 20:49:00+00:00,230.0314,6.9,11.86,47.84626,-54.09684
2022-05-17 20:59:00+00:00,239.8631,6.9,11.86,47.84626,-54.09684
2022-05-17 21:09:00+00:00,245.4914,6.9,11.86,47.84626,-54.09684
2022-05-17 21:19:00+00:00,250.2564,6.89,11.86,47.84626,-54.09684
2022-05-17 21:29:00+00:00,259.8964,6.88,11.86,47.84626,-54.09684
2022-05-17 21:39:00+00:00,267.4281,6.89,11.86,47.84626,-54.09684
2022-05-17 21:49:00+00:00,273.843,6.9,11.86,47.84626,-54.09684
2022-05-17 21:59:00+00:00,284.9964,6.9,11.86,47.84626,-54.09684
2022-05-17 22:09:00+00:00,295.9314,6.86,11.86,47.84626,-54.09684
2022-05-17 22:19:00+00:00,299.0413,6.8,11.86,47.84626,-54.09684
2022-05-17 22:29:00+00:00,305.678,6.8,11.86,47.84626,-54.09684
2022-05-17 22:39:00+00:00,318.1163,6.8,11.86,47.84626,-54.09684
2022-05-17 22:49:00+00:00,326.3513,6.79,11.86,47.84626,-54.09684
2022-05-17 22:59:00+00:00,334.01800000000014,6.74,11.86,47.84626,-54.09684
2022-05-17 23:09:00+00:00,344.73800000000006,6.72,11.86,47.84626,-54.09684
2022-05-17 23:19:01+00:00,351.93300000000005,6.7,11.86,47.84626,-54.09684
2022-05-17 23:29:01+00:00,357.2764,6.7,11.86,47.84626,-54.09684
2022-05-17 23:39:01+00:00,366.8396,6.7,11.86,47.84626,-54.09684
2022-05-17 23:49:01+00:00,375.5862,6.7,11.86,47.84626,-54.09684
2022-05-17 23:59:01+00:00,376.2412,6.7,11.86,47.84626,-54.09684
